Tracking 19192 objects as of 18-Jun-2018
HD Live streaming from Space Station
objects crossing your sky now

FENGYUN 1C DEB

Track FENGYUN 1C DEB now!
10-day predictions


NORAD ID: 31754
Int'l Code: 1999-025CFD
Perigee: 759.8 km
Apogee: 846.0 km
Inclination: 99.1 °
Period: 100.8 minutes
Semi major axis: 7173 km
RCS: 0.0091 m2 (small)
Launch date: May 10, 1999
Source: People's Republic of China (PRC)
Launch site: Taiyaun Space Center, China (TSC)

Note: This is SATELLITE DEBRIS
aabbcc
Your satellite tracking list
Your tracking list is empty




NASA's NSSDC Master Catalog

Two Line Element Set (TLE):
1 31754U 99025CFD 18169.27596353 +.00000393 +00000-0 +17178-3 0  9992
2 31754 099.1054 343.9590 0060083 252.9218 106.5375 14.28783633578528
Source of the keplerian elements: AFSPC